Weather History for Milton, FL

Change the Weather History Date:

Tuesday, February 18, 2014

  Actual Average (KNSE) Record (KNSE)
Temperature  
Mean Temperature 66 °F -  
Max Temperature 73 °F 64 °F 79 °F (2011)
Min Temperature 59 °F 46 °F 30 °F (2007)
Cooling Degree Days 1    
Growing Degree Days 16 (Base 50)    
Moisture  
Dew Point 60 °F    
Average Humidity 79    
Maximum Humidity 93    
Minimum Humidity 59    
Precipitation  
Precipitation 0.00 in - - ()
Sea Level Pressure  
Sea Level Pressure 30.15 in    
Wind  
Wind Speed 6 mph (South)    
Max Wind Speed 16 mph    
Max Gust Speed 20 mph    
Visibility 8 miles    
Events Fog    
Averages and records for this station are not official NWS values.
T = Trace of Precipitation, MM = Missing Value Source: NWS Daily Summary

Daily Weather History Graph

Daily Weather History Graph

Search for Another Location

Airport:

Trip Planner

Search our weather history database for the weather conditions in past years. The results will help you decide how hot, cold, wet, or windy it might be!

Date:

Astronomy

Feb. 18, 2014 Rise Set
Actual Time 6:25 AM CST 5:38 PM CST
Civil Twilight 6:01 AM CST 6:03 PM CST
Nautical Twilight 5:33 AM CST 6:31 PM CST
Astronomical Twilight 5:05 AM CST 6:59 PM CST
Moon 9:12 PM CST (2/18) 8:14 AM CST (2/18)
Length of Visible Light 12h 01m
Length of Day
11h 12m
Waning Gibbous, 87% of the Moon is Illuminated
Feb 18
Waning Gibbous
Feb 22
Last Quarter
Mar 1
New
Mar 8
First Quarter
Mar 16
Full

Hourly Weather History & Observations

Time (CST) Temp. Dew Point Humidity Pressure Visibility Wind Dir Wind Speed Gust Speed Precip Events Conditions
12:56 AM - - N/A% 30.16 in - North - - N/A   Unknown
1:56 AM - - N/A% 30.15 in - North - - N/A   Unknown
2:56 AM - - N/A% 30.14 in - North - - N/A   Unknown
3:56 AM - - N/A% 30.14 in - North - - N/A   Unknown
4:56 AM - - N/A% 30.15 in - North - - N/A   Unknown
5:56 AM 61.0 °F 59.0 °F 93% 30.16 in 0.5 mi Calm Calm - N/A Fog Fog
6:56 AM 61.0 °F 59.0 °F 93% 30.17 in 0.8 mi SSW 5.8 mph - N/A   Overcast
7:56 AM 61.0 °F 59.0 °F 93% 30.19 in 0.8 mi SSW 5.8 mph - N/A   Overcast
8:23 AM 66.0 °F 62.1 °F 87% 30.19 in 6.0 mi SW 9.2 mph - N/A   Overcast
8:42 AM 66.0 °F 63.0 °F 90% 30.20 in 7.0 mi SSW 8.1 mph - N/A   Overcast
8:56 AM 66.9 °F 62.1 °F 84% 30.20 in 7.0 mi South 5.8 mph - N/A   Overcast
9:33 AM 68.0 °F 63.0 °F 84% 30.20 in 7.0 mi SSW 4.6 mph - N/A   Overcast
9:49 AM 69.1 °F 62.1 °F 78% 30.20 in 7.0 mi SSW 4.6 mph - N/A   Overcast
9:56 AM 69.1 °F 62.1 °F 78% 30.20 in 7.0 mi Variable 4.6 mph - N/A   Overcast
10:26 AM 70.0 °F 61.0 °F 73% 30.20 in 9.0 mi Variable 6.9 mph - N/A   Overcast
10:56 AM 72.0 °F 61.0 °F 68% 30.19 in 9.0 mi SSW 5.8 mph - N/A   Mostly Cloudy
11:56 AM 73.9 °F 61.0 °F 64% 30.17 in 10.0 mi South 6.9 mph - N/A   Mostly Cloudy
12:56 PM 73.9 °F 59.0 °F 59% 30.15 in 10.0 mi SSW 8.1 mph - N/A   Mostly Cloudy
1:56 PM 73.9 °F 60.1 °F 62% 30.13 in 10.0 mi South 12.7 mph 19.6 mph N/A   Mostly Cloudy
2:56 PM 73.9 °F 60.1 °F 62% 30.12 in 10.0 mi SSW 16.1 mph - N/A   Mostly Cloudy
3:21 PM 72.0 °F 62.1 °F 71% 30.12 in 10.0 mi SSW 12.7 mph - N/A   Mostly Cloudy
3:56 PM 71.1 °F 62.1 °F 73% 30.12 in 10.0 mi South 10.4 mph - N/A   Mostly Cloudy
4:56 PM 66.0 °F 63.0 °F 90% 30.12 in 10.0 mi South 9.2 mph - N/A   Mostly Cloudy
5:56 PM 66.0 °F 59.0 °F 78% 30.09 in 10.0 mi South 8.1 mph - N/A   Mostly Cloudy
6:29 PM 64.0 °F 57.0 °F 78% 30.13 in 10.0 mi South 9.2 mph - N/A   Mostly Cloudy
6:56 PM 64.0 °F 57.0 °F 78% 30.09 in 10.0 mi South 9.2 mph - N/A   Mostly Cloudy
7:56 PM 63.0 °F 57.0 °F 81% 30.10 in 10.0 mi SSW 5.8 mph - N/A   Mostly Cloudy
8:56 PM 59.0 °F 55.0 °F 87% 30.09 in 10.0 mi SSE 6.9 mph - N/A   Mostly Cloudy
9:56 PM 61.0 °F 55.0 °F 81% 30.08 in 10.0 mi South 8.1 mph - N/A   Mostly Cloudy
10:56 PM 61.0 °F 55.0 °F 81% 30.07 in 10.0 mi South 9.2 mph - N/A   Mostly Cloudy
11:56 PM - - N/A% 30.10 in - North - - N/A   Unknown